Location: *
(38.3914°N, 75.0697°W)
Time: 23:43:17
(UTC+00:00)

H-2A R/B - Pass Details

Date: 17 February 2020
Orbit: 503 x 540 km, 97.3° (Epoch: 28 February)

Event Time Altitude Azimuth Distance (km) Brightness Sun altitude
Rises 11:17:32 0° 8° (N) 2,641 6.3 -6.8°
Reaches altitude 10° 11:19:40 10° 6° (N) 1,744 5.3 -6.4°
Maximum altitude 11:23:23 68° 284° (WNW) 554 2.6 -5.7°
Drops below altitude 10° 11:27:03 10° 201° (SSW) 1,713 5.3 -5.0°
Sets 11:29:07 0° 199° (SSW) 2,590 6.2 -4.6°
